Regional Weather Roundup
Issued by NWS Green Bay, WI

Home | Current Version | Previous Version | Graphics & Text | Print | Product List | Glossary Off
Versions: 1 2 3 4 5 6 7 8 9 10 11 12 13 14 15 16 17 18 19 20 21 22 23 24 25 26 27 28 29 30 31 32 33 34 35 36 37 38 39 40 41 42 43 44 45 46 47 48 49 50

902
ASUS43 KGRB 251000
RWRGRB

NORTH-CENTRAL AND NORTHEAST WISCONSIN REGIONAL WEATHER ROUNDUP
NATIONAL WEATHER SERVICE GREEN BAY WI
400 AM CST SAT FEB 25 2017

WIZ005-009-010>012-018-019-251100-
NORTH CENTRAL WISCONSIN

CITY           SKY/WX    TMP DP  RH WIND       PRES   REMARKS
IRONWOOD       FLURRIES  15  10  80 NW14G25   29.67F WCI   0
MANITOWISH WTR NOT AVBL
ARBOR VITAE    NOT AVBL
EAGLE RIVER    NOT AVBL
LAND O LAKES   NOT AVBL
RHINELANDER    LGT SNOW  16  11  80 NW5       29.59R WCI   9
PHILLIPS       NOT AVBL
ANTIGO         NOT AVBL
TOMAHAWK       NOT AVBL
MERRILL        NOT AVBL
$$

WIZ013-073-251100-
NORTHEAST WISCONSIN

CITY           SKY/WX    TMP DP  RH WIND       PRES   REMARKS
IRON MOUNTAIN  LGT SNOW  18  11  74 NW16      29.52R WCI   3
MARINETTE      LGT SNOW  20  17  88 NW10G16   29.55R FOG     WCI   9
$$

WIZ017-030-035>037-045-251100-
CENTRAL WISCONSIN

CITY           SKY/WX    TMP DP  RH WIND       PRES   REMARKS
MEDFORD        NOT AVBL
WAUSAU         LGT SNOW  16  11  80 NW16G23   29.62S WCI   1
MOSINEE        NOT AVBL
MARSHFIELD     FLURRIES  16   9  74 NW20      29.66S WCI  -1
WISC RAPIDS    LGT SNOW  17  12  80 NW15G23   29.69R WCI   2
STEVENS POINT  NOT AVBL
WAUPACA        NOT AVBL
SHAWANO        LGT SNOW  21  17  86 CALM      29.61R
CLINTONVILLE   NOT AVBL
WAUTOMA        LGT SNOW  17  14  88 NW13        N/A  FOG     WCI   4
$$

WIZ038-039-048-051-251100-
FOX VALLEY

CITY           SKY/WX    TMP DP  RH WIND       PRES   REMARKS
NWS GREEN BAY  CLOUDY    21  19  92 NW14      29.59R FOG     WCI   8
APPLETON       NOT AVBL
OSHKOSH        LGT SNOW  20  16  84 NW13G22   29.61R FOG     WCI   7
FOND DU LAC    LGT SNOW  20  15  81 NW12      29.62R VSB 1   WCI   8
$$

WIZ022-050-052-251100-
EAST CENTRAL WISCONSIN

CITY           SKY/WX    TMP DP  RH WIND       PRES   REMARKS
EPHRAIM        NOT AVBL
WASHINGTON ISL NOT AVBL
STURGEON BAY   LGT SNOW  21  18  88 NW17      29.53S FOG     WCI   7
MANITOWOC      NOT AVBL
SHEBOYGAN      LGT SNOW  21  17  84 NW13      29.58R FOG     WCI   9
$$

LMZ563-521-522-541>543-251100-
LAKESHORE

STATION/POSITION TIME  TEMP    WIND        PRES    VSBY  WAVE
                       AIR SEA DIR/SP/G                  HT/PER
                 (UTC) (F)     (DEG/KT/KT) (MB)    (MI)  (FT/S)
SHEBOYGAN LKSHOR 0900   22     300/  5/  6 1002.0R
KEWAUNEE LKSHORE 0930   21     320/ 12/ 17 1000.1R
NORTHPORT PIER   0940   24     310/  2/  3  999.3R
SISTER BAY LKSHO 0905   23        CALM       N/A
CHAMBERS ISLAND  0940   22     300/  2/  3  999.7R
MENOMINEE LKSHOR 0930   21     300/ 10/ 16  999.8R
$$




USA.gov is the U.S. government's official web portal to all federal, state and local government web resources and services.